This is the latest recevied weather packets stored in our database for station/object KB1FPD. If no packets are shown the sender has not sent any weather packets the latest 1 day(s).
| Time | Temp. | Humidity | Pressure | Rain* | Wind** | Luminosity | Snow |
|---|---|---|---|---|---|---|---|
| 1778027796 | 21.67° C | 42% | 1009.8 hPa | 0 mm | 3.13 m/s, 195° | - | - |
| 1778027495 | 21.67° C | 42% | 1009.7 hPa | 0 mm | 3.13 m/s, 182° | - | - |
| 1778027195 | 21.67° C | 42% | 1009.8 hPa | 0 mm | 3.13 m/s, 178° | - | - |
| 1778026888 | 21.67° C | 43% | 1009.6 hPa | 0 mm | 2.68 m/s, 145° | - | - |
| 1778026586 | 21.67° C | 43% | 1009.6 hPa | 0 mm | 2.68 m/s, 213° | - | - |
| 1778026286 | 21.67° C | 43% | 1009.6 hPa | 0 mm | 2.24 m/s, 192° | - | - |
| 1778025990 | 22.22° C | 43% | 1009.5 hPa | 0 mm | 2.24 m/s, 182° | - | - |
| 1778025685 | 22.22° C | 42% | 1009.4 hPa | 0 mm | 2.24 m/s, 158° | - | - |
| 1778025383 | 22.22° C | 42% | 1009.3 hPa | 0 mm | 2.24 m/s, 185° | - | - |
| 1778025083 | 22.22° C | 42% | 1009.2 hPa | 0 mm | 2.68 m/s, 135° | - | - |
| 1778024789 | 22.78° C | 42% | 1009.2 hPa | 0 mm | 2.68 m/s, 160° | - | - |
| 1778024481 | 22.78° C | 41% | 1009.2 hPa | 0 mm | 2.24 m/s, 218° | - | - |
| 1778024182 | 22.78° C | 42% | 1009.2 hPa | 0 mm | 2.68 m/s, 205° | - | - |
| 1778023885 | 22.78° C | 41% | 1009.2 hPa | 0 mm | 3.58 m/s, 213° | - | - |
| 1778023585 | 22.78° C | 40% | 1009.3 hPa | 0 mm | 3.58 m/s, 213° | - | - |
| 1778023283 | 23.33° C | 40% | 1009.2 hPa | 0 mm | 3.58 m/s, 193° | - | - |
| 1778022979 | 23.33° C | 40% | 1009.1 hPa | 0 mm | 3.58 m/s, 159° | - | - |
| 1778022685 | 23.33° C | 41% | 1009.2 hPa | 0 mm | 3.13 m/s, 205° | - | - |
| 1778022382 | 23.33° C | 42% | 1009.2 hPa | 0 mm | 3.13 m/s, 204° | - | - |
| 1778022074 | 23.33° C | 42% | 1009.1 hPa | 0 mm | 2.68 m/s, 181° | - | - |
| 1778021775 | 23.89° C | 42% | 1009.2 hPa | 0 mm | 2.68 m/s, 167° | - | - |
| 1778021474 | 23.89° C | 42% | 1009.3 hPa | 0 mm | 3.13 m/s, 190° | - | - |
| 1778021175 | 23.33° C | 42% | 1009.3 hPa | 0 mm | 3.13 m/s, 212° | - | - |
| 1778020878 | 23.89° C | 43% | 1009.4 hPa | 0 mm | 3.58 m/s, 208° | - | - |
| 1778020569 | 23.89° C | 42% | 1009.4 hPa | 0 mm | 3.58 m/s, 193° | - | - |
* Rain latest hour (hover to see other rain measurements)
** Current wind speed in m/s (hover to see current wind gust speed)